Location: ?????
(55.6500°N, 37.2500°E)
Time: 14:24:16
(UTC+00:00)

ALOS 2 - Pass Details

Date: 19 May 2025
Orbit: 630 x 632 km, 97.9° (Epoch: 20 June)

Event Time Altitude Azimuth Distance (km) Brightness Sun altitude
Exits shadow 20:40:27 22° 163° (SSE) 1,393 3.7 -13.7°
Maximum altitude 20:43:18 89° 77° (ENE) 642 2.6 -13.8°
Drops below altitude 10° 20:47:44 10° 345° (NNW) 2,030 6.6 -13.9°
Sets 20:49:57 0° 345° (NNW) 2,943 8.0 -14.0°
